Zurück zum Katalog

FENGYUN 1C DEB

AktivSSO
NORAD 38163·DEBRIS·🇨🇳 China

Gestartet May 10, 1999 von Taiyuan Satellite Launch Center

Loading…

Nächste Überflüge (nächste 24 Stunden)

TLE

VeraltetSource: Space-Track

Epoche: Aug 29, 2026, 19:59 UTC

1 38163U 99025ERL 26241.83284782  .00001006  00000-0  61989-3 0  9996
2 38163  99.1047 285.1026 0074778 238.4004 120.9851 14.06498083281977

Verfolge FENGYUN 1C DEB in Echtzeit mit AllMySat

Download on the App Store